Location: Lombard
(41.8800°N, 88.0080°W)
Time: 03:00:42
(UTC-05:00)

BEESAT - Pass Details

Date: 16 May 2022
Orbit: 698 x 708 km, 98.6° (Epoch: 26 June)

Event Time Altitude Azimuth Distance (km) Brightness Sun altitude
Rises 21:28:04 0° 10° (N) 3,096 ? -13.3°
Reaches altitude 10° 21:30:21 10° 7° (N) 2,172 ? -13.6°
Maximum altitude 21:35:02 63° 287° (WNW) 783 ? -14.3°
Drops below altitude 10° 21:39:42 10° 207° (SSW) 2,154 ? -14.9°
Sets 21:41:57 0° 204° (SSW) 3,067 ? -15.2°
